Visibility
15.0 15.0 15.0 15.0 15.0 15.0 15.0 15.0 15.0 15.0 7.3 15.0 15.0 15.0 15.0 15.0 15.0 15.0 15.0 15.0 15.0 15.0 15.0 15.0 15.0 15.0 15.0 15.0 15.0 15.0 15.0 15.0
15.0 15.0 15.0 15.0 15.0 15.0 15.0 15.0 15.0 15.0 3.0 15.0 15.0 15.0 15.0 15.0 15.0 15.0 15.0 15.0 15.0 15.0 15.0 15.0 15.0 15.0 15.0 15.0 15.0 15.0 15.0 15.0
15.0 15.0 15.0 15.0 15.0 15.0 15.0 15.0 15.0 15.0 15.0 7.3 4.1 15.0 15.0 15.0 15.0 15.0 15.0 15.0 15.0 15.0 15.0 15.0 15.0 15.0 15.0 15.0 15.0 15.0 15.0 15.0
15.0 15.0 15.0 15.0 15.0 15.0 15.0 15.0 15.0 15.0 15.0 15.0 12.2 8.2 15.0 15.0 15.0 15.0 15.0 15.0 15.0 15.0 15.0 15.0 15.0 15.0 15.0 15.0 15.0 15.0 15.0 15.0
14.1 15.0 15.0 15.0 15.0 15.0 15.0 15.0 15.0 15.0 15.0 12.0 9.9 3.7 15.0 15.0 15.0 15.0 15.0 15.0 15.0 15.0 15.0 15.0 15.0 15.0 15.0 15.0 15.0 15.0 15.0 15.0
15.0 15.0 15.0 15.0 15.0 15.0 15.0 15.0 15.0 15.0 15.0 15.0 3.3 4.3 15.0 15.0 15.0 15.0 15.0 15.0 15.0 15.0 15.0 15.0 15.0 15.0 15.0 15.0 15.0 15.0 15.0 15.0
8.7 15.0 15.0 1.0 15.0 15.0 15.0 15.0 15.0 15.0 15.0 4.2 3.5 15.0 15.0 15.0 15.0 15.0 15.0 15.0 15.0 15.0 15.0 15.0 15.0 15.0 15.0 15.0 15.0 15.0 15.0 15.0
5.9 14.6 0.5 0.1 0.2 13.9 8.6 13.2 15.0 15.0 14.4 10.6 3.2 7.5 1.8 2.9 12.4 1.8 15.0 15.0 15.0 15.0 15.0 15.0 15.0 15.0 15.0 15.0 15.0 15.0 15.0 15.0
1.7 0.2 0.1 0.0 0.0 0.1 4.8 6.3 4.9 14.7 14.9 14.1 11.1 4.4 2.2 2.2 7.1 0.5 5.6 15.0 11.9 15.0 15.0 15.0 15.0 15.0 15.0 7.1 15.0 15.0 15.0 15.0
0.1 0.3 0.1 0.1 0.0 0.1 4.6 5.8 8.4 9.1 4.8 10.4 5.8 5.9 2.5 2.2 6.4 1.7 2.0 4.8 12.8 13.8 15.0 15.0 12.7 3.9 13.9 15.0 15.0 14.9 14.4 15.0
0.1 0.2 0.1 0.1 0.1 3.5 2.2 2.1 15.0 7.5 5.0 3.3 3.9 10.2 3.1 4.5 1.7 12.2 5.4 15.0 14.0 15.0 10.9 13.2 15.0 15.0 15.0 15.0 15.0 14.0 12.2 6.8
0.1 0.2 0.1 0.1 2.7 1.3 6.1 4.6 14.8 12.9 4.3 2.0 2.5 2.1 3.9 11.6 7.2 2.5 4.9 11.2 13.3 15.0 14.1 12.8 14.4 15.0 9.2 13.7 10.1 15.0 15.0 4.0
0.1 0.1 0.1 0.1 0.2 3.5 1.0 1.3 15.0 15.0 8.2 14.3 5.9 15.0 5.4 2.4 1.9 2.2 4.3 4.4 4.9 5.1 6.0 11.9 14.0 11.5 10.8 14.7 2.3 14.9 15.0 15.0
0.1 0.2 0.1 0.1 0.1 0.1 1.2 4.5 0.4 2.6 11.2 14.0 15.0 15.0 14.5 8.4 15.0 15.0 15.0 15.0 12.3 15.0 15.0 10.3 14.3 14.2 11.9 2.7 3.4 12.4 15.0 10.2
0.2 0.1 0.1 0.1 0.2 0.2 0.5 12.8 7.5 5.0 3.5 9.2 15.0 15.0 15.0 15.0 15.0 15.0 15.0 15.0 15.0 15.0 15.0 15.0 15.0 14.8 11.7 15.0 14.6 14.9 8.3 10.8
0.5 0.1 0.1 0.1 0.1 0.4 0.1 15.0 13.5 11.4 15.0 15.0 15.0 15.0 15.0 15.0 15.0 15.0 15.0 15.0 15.0 15.0 15.0 15.0 15.0 15.0 15.0 15.0 15.0 15.0 15.0 9.3
14.9 4.6 6.3 1.1 10.4 11.1 14.9 11.8 10.5 15.0 15.0 15.0 15.0 15.0 15.0 15.0 15.0 15.0 15.0 15.0 15.0 15.0 15.0 15.0 15.0 15.0 15.0 15.0 15.0 15.0 15.0 15.0
11.6 5.6 7.0 2.7 4.4 8.7 7.4 15.0 15.0 15.0 15.0 15.0 15.0 15.0 15.0 15.0 15.0 15.0 15.0 15.0 15.0 15.0 15.0 15.0 15.0 15.0 15.0 15.0 15.0 15.0 15.0 15.0
15.0 15.0 15.0 15.0 14.3 12.4 8.5 12.7 15.0 15.0 15.0 10.8 15.0 15.0 15.0 13.3 13.9 14.8 15.0 15.0 11.8 12.3 15.0 15.0 15.0 15.0 15.0 15.0 15.0 15.0 15.0 15.0